Regional Weather Roundup
Issued by NWS Little Rock, AR

Home | Current Version | Previous Version | Graphics & Text | Print | Product List | Glossary On
Versions: 1 2 3 4 5 6 7 8 9 10 11 12 13 14 15 16 17 18 19 20 21 22 23 24 25 26 27 28 29 30 31 32 33 34 35 36 37 38 39 40 41 42 43 44 45 46 47 48 49 50
226
ASUS44 KLZK 011205
RWRLZK

WEATHER ROUNDUP FOR ARKANSAS
NATIONAL WEATHER SERVICE LITTLE ROCK AR
700 AM CDT SUN MAY 01 2016

NOTE: "FAIR" INDICATES FEW OR NO CLOUDS BELOW 12,000 FEET WITH NO
SIGNIFICANT WEATHER AND/OR OBSTRUCTIONS TO VISIBILITY.

ARZ001-003-010-029-011300-
NORTHWEST ARKANSAS

CITY           SKY/WX    TMP DP  RH WIND       PRES   REMARKS
FAYETTEVILLE   FOG       44  44 100 S3        29.95S VSB 1
6HR MIN TEMP:  44; 6HR MAX TEMP:  51;

FORT SMITH     CLEAR     53  48  83 CALM      29.94R
6HR MIN TEMP:  52; 6HR MAX TEMP:  62;

HARRISON       CLEAR     52  47  83 W6        29.94S
6HR MIN TEMP:  51; 6HR MAX TEMP:  59;

BENTONVILLE    CLEAR    N/A N/A N/A CALM      29.95R VSB 1
ROGERS         CLEAR     47  46  97 CALM      29.96R
6HR MIN TEMP:  46; 6HR MAX TEMP:  54;

SILOAM SPGS    CLEAR     45  37  76 CALM      29.96R
6HR MIN TEMP:  45; 6HR MAX TEMP:  52;

HIGHFILL       CLEAR     46  45  96 CALM      29.95R
6HR MIN TEMP:  45; 6HR MAX TEMP:  56;

SPRINGDALE     CLEAR     46  46 100 CALM      29.97R
$$

ARZ004-005-016-011300-
NORTH CENTRAL ARKANSAS

CITY           SKY/WX    TMP DP  RH WIND       PRES   REMARKS
BATESVILLE     PTCLDY    59  57  94 CALM      29.92R
6HR MIN TEMP:  59; 6HR MAX TEMP:  66; 6HR PCP:  0.07;

FLIPPIN        CLEAR    N/A N/A N/A W5        29.91R
MTN HOME       CLEAR     55  54  96 VRB3      29.92R
6HR MIN TEMP:  54; 6HR MAX TEMP:  58;

$$

ARZ040-041-011300-
WEST CENTRAL ARKANSAS

CITY           SKY/WX    TMP DP  RH WIND       PRES   REMARKS
MENA           CLEAR     54  52  94 CALM      29.94R
MOUNT IDA      CLEAR     56  54  93 CALM      29.90S
6HR MIN TEMP:  56; 6HR MAX TEMP:  65; 6HR PCP:  0.01;

$$

ARZ009-017-025-026-028-011300-
NORTHEAST ARKANSAS

CITY           SKY/WX    TMP DP  RH WIND       PRES   REMARKS
CORNING          N/A     61  61 100 W6        29.91R
JONESBORO      CLOUDY    65  63  93 CALM      29.89R
6HR MIN TEMP:  61; 6HR MAX TEMP:  68;

NEWPORT        PTCLDY    62  62 100 NW5       29.91S
6HR MIN TEMP:  62; 6HR MAX TEMP:  68; 6HR PCP: TRACE;

WALNUT RIDGE   CLEAR     61  57  88 W5        29.90S
6HR MIN TEMP:  61; 6HR MAX TEMP:  64; 6HR PCP:  0.70;

BLYTHEVILLE    CLEAR     65  63  93 S6        29.90S
6HR MIN TEMP:  64; 6HR MAX TEMP:  67;

$$

ARZ022-023-033-042-044-011300-
CENTRAL ARKANSAS

CITY           SKY/WX    TMP DP  RH WIND       PRES   REMARKS
LITTLE ROCK    MOCLDY    66  62  87 NW8       29.91R
6HR MIN TEMP:  64; 6HR MAX TEMP:  72;

N LITTLE ROCK    N/A     63  62  96 N5        29.89R
6HR MIN TEMP:  63; 6HR MAX TEMP:  68;

JACKSONVILLE   CLEAR     64  62  96 W2        29.90R
6HR MIN TEMP:  63; 6HR MAX TEMP:  69;

SEARCY         CLEAR     61  61 100 CALM      29.92R
6HR MIN TEMP:  61; 6HR MAX TEMP:  66;

HOT SPRINGS    CLEAR     61  58  90 W3        29.92R
6HR MIN TEMP:  61; 6HR MAX TEMP:  67; 6HR PCP: TRACE;

RUSSELLVILLE   CLEAR     59  57  93 NW3       29.92R
6HR MIN TEMP:  59; 6HR MAX TEMP:  66;

$$

ARZ036-011300-
EAST ARKANSAS

CITY           SKY/WX    TMP DP  RH WIND       PRES   REMARKS
WEST MEMPHIS   PTCLDY    63  63 100 S6        29.88R FOG
6HR MIN TEMP:  63; 6HR MAX TEMP:  65;

$$

ARZ050-053-066-070-073-011300-
SOUTHWEST ARKANSAS

CITY           SKY/WX    TMP DP  RH WIND       PRES   REMARKS
ARKADELPHIA    FAIR      64  64 100 N3        29.90R
6HR MIN TEMP:  64; 6HR MAX TEMP:  70; 6HR PCP:  0.01;

CAMDEN         MOCLDY    66  63  88 N3        29.88R
TEXARKANA      CLOUDY    64  62  93 NE7       29.89R
6HR MIN TEMP:  64; 6HR MAX TEMP:  68;

EL DORADO      CLOUDY    68  67  96 N5        29.88R
6HR MIN TEMP:  68; 6HR MAX TEMP:  69;

DE QUEEN       CLEAR     56  55  97 CALM      29.88S
6HR MIN TEMP:  55; 6HR MAX TEMP:  65;

$$

ARZ056-057-069-011300-
SOUTHEAST ARKANSAS

CITY           SKY/WX    TMP DP  RH WIND       PRES   REMARKS
PINE BLUFF     MOCLDY    67  64  90 N8        29.89R
6HR MIN TEMP:  67; 6HR MAX TEMP:  69;

STUTTGART      PTCLDY    66  61  82 NW6       29.90R
6HR MIN TEMP:  66; 6HR MAX TEMP:  70;

MONTICELLO     FOG       69  67  93 CALM      29.88R VSB 1/2
6HR MIN TEMP:  67; 6HR MAX TEMP:  69;


$$






USA.gov is the U.S. government's official web portal to all federal, state and local government web resources and services.